Volver al catálogo

CZ-6A DEB

ActivoPO
NORAD 60811·DEBRIS·🇨🇳 China

Lanzado Aug 6, 2024 desde Taiyuan Satellite Launch Center

Loading…

Próximos Pases (próximas 24 horas)

TLE

ActualizadoSource: Space-Track

Época: Sep 14, 2026, 08:34 UTC

1 60811U 24140GN  26257.35751792  .00004683  00000-0  46415-3 0  9992
2 60811  88.6809 224.4635 0126994 192.9084 166.8884 14.85693112112642

Sigue CZ-6A DEB en tiempo real con AllMySat

Download on the App Store